Home > Weather > Koror > Past weeks

Flag for Palau Past Weather in Koror, Palau — Yesterday and Last 2 Weeks

Now
88 °F

Broken clouds.


Feels Like: 100 °F
Forecast: 79 / 86 °F
Wind: 9 mph from South

Location: Koror / Palau Island

Current Time: Aug 26, 2016 at 4:00:30 PM

Latest Report: Aug 26, 2016 at 2:50 PM


Visibility: 14 mi

Pressure: 29.79 "Hg

Humidity: 70%

Dew Point: 77 °F

Location of KororLocation

Past Weather in Koror — Graph

°F

Koror Temperature Yesterday

Maximum temperature yesterday: 88 °F (at 10:50 AM)
Minimum temperature yesterday: 77 °F (at 10:55 PM)
Average temperature yesterday: 83 °F

High & Low Weather Summary for the Past Weeks

 TemperatureHumidityPressure
High90 °F (Aug 13, 9:55 AM)100% (Aug 18, 8:54 PM)29.87 "Hg (Aug 18, 8:54 PM)
Low75 °F (Aug 14, 7:50 PM)67% (Aug 13, 10:50 AM)29.63 "Hg (Aug 19, 3:50 PM)
Average83 °F84%29.75 "Hg
* Reported Aug 11 2:50 PM — Aug 26 2:50 PM, Koror, Weather by CustomWeather, © 2016

Note: Actual official high and low records may vary slightly from our data, if they occured in-between our weather recording intervals... More about our weather records

Advertising

Koror Weather History for the Previous 24 Hours

Scroll right to see more
 ConditionsComfort  
Time TempWeatherWind HumidityBarometerVisibility
2:50 PM
Fri, Aug 26
88 °FBroken clouds.9 mph70%29.79 "Hg14 mi
1:50 PM88 °FBroken clouds.8 mph75%29.81 "Hg13 mi
12:50 PM88 °FPartly sunny.10 mph75%29.82 "Hg13 mi
11:50 AM88 °FPartly sunny.6 mph75%29.85 "Hg13 mi
10:50 AM88 °FPartly sunny.7 mph79%29.85 "Hg13 mi
9:50 AM86 °FPartly sunny.8 mph79%29.86 "Hg13 mi
8:50 AM86 °FBroken clouds.7 mph79%29.87 "Hg13 mi
7:50 AM84 °FBroken clouds.6 mph84%29.86 "Hg14 mi
6:50 AM81 °FBroken clouds.No wind89%29.84 "Hg14 mi
5:50 AM77 °FPartly cloudy.No wind94%29.82 "Hg14 mi
4:55 AM77 °FPassing clouds.3 mph94%29.81 "Hg14 mi
3:50 AM77 °FPassing clouds.No wind94%29.81 "Hg14 mi
2:55 AM77 °FPartly cloudy.No wind94%29.82 "Hg14 mi
1:50 AM79 °FPartly cloudy.No wind94%29.82 "Hg14 mi
12:55 AM79 °FPartly cloudy.No wind94%29.82 "Hg14 mi
11:55 PM
Thu, Aug 25
77 °FPartly cloudy.No wind100%29.85 "Hg14 mi
10:55 PM77 °FPartly cloudy.No wind100%29.85 "Hg14 mi
9:53 PM79 °FPartly cloudy.No wind94%29.85 "Hg14 mi
8:51 PM79 °FPartly cloudy.No wind94%29.85 "Hg14 mi
7:53 PM81 °FPartly cloudy.No wind89%29.82 "Hg14 mi
6:51 PM82 °FPartly cloudy.No wind84%29.80 "Hg14 mi
5:54 PM84 °FBroken clouds.No wind79%29.78 "Hg14 mi
4:55 PM86 °FBroken clouds.6 mph70%29.75 "Hg14 mi
Weather by CustomWeather, © 2016

See weather overviewHow to use our weather pages